When you browse on this site, cookies collect data to enhance your experience and personalize the content and advertising you see.
Visit our Privacy Policy to learn more. By continuing to use the site, you agree to this use of cookies and data.
  • In Czech Republic
  • List of Countries
  • For 7 days
  • Water Temperature
  • Satellite Maps
  • Weather Map
  • Weather Widgets
  • user-avatar
    Login

    Hourly Weather Jutiapa

    Today, 17 December, Monday

    Time Temperature Precipitation Wind Pressure Humidity
    00:00 +15°C° 0 mm 4 mps 675 mmHg 80%
    01:00 +15°C° 0 mm 4 mps 674 mmHg 80%
    02:00 +14°C° 0 mm 3 mps 674 mmHg 80%
    03:00 +14°C° 0 mm 3 mps 674 mmHg 81%
    04:00 +14°C° 0 mm 3 mps 674 mmHg 81%
    05:00 +14°C° 0 mm 3 mps 674 mmHg 81%
    06:00 +14°C° 0 mm 3 mps 674 mmHg 81%
    07:00 +17°C° 0 mm 3 mps 675 mmHg 74%
    08:00 +19°C° 0 mm 3 mps 676 mmHg 67%
    09:00 +21°C° 0 mm 3 mps 676 mmHg 60%
    10:00 +24°C° 0 mm 3 mps 676 mmHg 55%
    11:00 +26°C° 0 mm 3 mps 676 mmHg 49%
    12:00 +27°C° 0 mm 3 mps 676 mmHg 44%
    13:00 +27°C° 0 mm 3 mps 676 mmHg 45%
    14:00 +27°C° 0 mm 3 mps 675 mmHg 46%
    15:00 +27°C° 0 mm 3 mps 675 mmHg 47%
    16:00 +25°C° 0 mm 3 mps 674 mmHg 55%
    17:00 +22°C° 0 mm 3 mps 674 mmHg 63%
    18:00 +20°C° 0 mm 2 mps 673 mmHg 71%
    19:00 +19°C° 0 mm 3 mps 674 mmHg 75%
    20:00 +18°C° 0 mm 3 mps 674 mmHg 78%
    21:00 +18°C° 0 mm 3 mps 674 mmHg 81%
    22:00 +17°C° 0 mm 3 mps 674 mmHg 81%
    23:00 +17°C° 0 mm 3 mps 674 mmHg 82%

    Tomorrow, 18 December, Tuesday

    Time Temperature Precipitation Wind Pressure Humidity
    00:00 +17°C° 0 mm 3 mps 674 mmHg 83%
    01:00 +17°C° 0 mm 3 mps 674 mmHg 83%
    02:00 +17°C° 0 mm 3 mps 673 mmHg 83%
    03:00 +17°C° 0 mm 3 mps 673 mmHg 83%
    04:00 +17°C° 0 mm 3 mps 673 mmHg 83%
    05:00 +16°C° 0 mm 3 mps 673 mmHg 84%
    06:00 +16°C° 0 mm 3 mps 673 mmHg 84%
    07:00 +18°C° 0 mm 3 mps 674 mmHg 77%
    08:00 +20°C° 0 mm 3 mps 674 mmHg 69%
    09:00 +22°C° 0 mm 3 mps 675 mmHg 62%
    10:00 +25°C° 0 mm 3 mps 675 mmHg 56%
    11:00 +26°C° 0 mm 3 mps 675 mmHg 50%
    12:00 +28°C° 0 mm 3 mps 675 mmHg 44%
    13:00 +28°C° 0 mm 2 mps 674 mmHg 44%
    14:00 +28°C° 0 mm 2 mps 674 mmHg 44%
    15:00 +28°C° 0 mm 2 mps 673 mmHg 44%
    16:00 +26°C° 0 mm 2 mps 673 mmHg 53%
    17:00 +23°C° 0 mm 1 mps 672 mmHg 63%
    18:00 +21°C° 0 mm 1 mps 672 mmHg 73%
    19:00 +20°C° 0 mm 1 mps 672 mmHg 78%
    20:00 +19°C° 0 mm 1 mps 673 mmHg 82%
    21:00 +18°C° 0 mm 1 mps 673 mmHg 86%
    22:00 +18°C° 0 mm 1 mps 673 mmHg 87%
    23:00 +16°C° 0 mm 1 mps 673 mmHg 88%

    Day after tomorrow, 19 December, Wednesday

    Time Temperature Precipitation Wind Pressure Humidity
    00:00 +16°C° 0 mm 1 mps 672 mmHg 89%
    01:00 +16°C° 0 mm 1 mps 672 mmHg 89%
    02:00 +16°C° 0 mm 1 mps 672 mmHg 89%
    03:00 +15°C° 0 mm 1 mps 671 mmHg 90%
    04:00 +15°C° 0 mm 1 mps 671 mmHg 89%
    05:00 +15°C° 0 mm 1 mps 671 mmHg 87%
    06:00 +15°C° 0 mm 1 mps 671 mmHg 86%
    07:00 +19°C° 0 mm 1 mps 673 mmHg 73%
    08:00 +22°C° 0 mm 1 mps 674 mmHg 60%
    09:00 +25°C° 0 mm 1 mps 675 mmHg 47%
    10:00 +27°C° 0 mm 1 mps 674 mmHg 43%
    11:00 +28°C° 0 mm 2 mps 674 mmHg 39%
    12:00 +29°C° 0 mm 2 mps 674 mmHg 35%
    13:00 +29°C° 0 mm 2 mps 673 mmHg 36%
    14:00 +29°C° 0 mm 3 mps 672 mmHg 38%
    15:00 +29°C° 0 mm 3 mps 671 mmHg 39%
    16:00 +26°C° 0 mm 2 mps 671 mmHg 48%
    17:00 +24°C° 0 mm 2 mps 671 mmHg 58%
    18:00 +21°C° 0 mm 1 mps 671 mmHg 67%
    19:00 +20°C° 0 mm 1 mps 671 mmHg 72%
    20:00 +19°C° 0 mm 1 mps 671 mmHg 76%
    21:00 +18°C° 0 mm 1 mps 672 mmHg 81%
    22:00 +18°C° 0 mm 1 mps 672 mmHg 80%
    23:00 +18°C° 0 mm 1 mps 672 mmHg 80%

    20 December, Thursday

    Time Temperature Precipitation Wind Pressure Humidity
    00:00 +18°C° 0 mm 1 mps 671 mmHg 79%
    01:00 +16°C° 0 mm 1 mps 671 mmHg 78%
    02:00 +16°C° 0 mm 1 mps 671 mmHg 76%
    03:00 +16°C° 0 mm 1 mps 670 mmHg 74%
    04:00 +16°C° 0 mm 1 mps 671 mmHg 73%
    05:00 +16°C° 0 mm 1 mps 671 mmHg 72%
    06:00 +16°C° 0 mm 1 mps 671 mmHg 71%
    07:00 +20°C° 0 mm 1 mps 672 mmHg 61%
    08:00 +23°C° 0 mm 1 mps 674 mmHg 52%
    09:00 +24°C° 0 mm 0 mps 675 mmHg 43%
    10:00 +28°C° 0 mm 1 mps 675 mmHg 39%
    11:00 +30°C° 0 mm 1 mps 675 mmHg 36%
    12:00 +32°C° 0 mm 1 mps 675 mmHg 33%
    13:00 +31°C° 0 mm 1 mps 674 mmHg 33%
    14:00 +30°C° 0 mm 1 mps 673 mmHg 34%
    15:00 +30°C° 0 mm 2 mps 672 mmHg 35%
    16:00 +27°C° 0 mm 1 mps 672 mmHg 44%
    17:00 +24°C° 0 mm 1 mps 672 mmHg 53%
    18:00 +22°C° 0 mm 1 mps 672 mmHg 62%
    19:00 +21°C° 0 mm 1 mps 672 mmHg 67%
    20:00 +19°C° 0 mm 2 mps 672 mmHg 72%
    21:00 +18°C° 0 mm 2 mps 673 mmHg 78%
    22:00 +18°C° 0 mm 2 mps 673 mmHg 81%
    23:00 +18°C° 0 mm 2 mps 673 mmHg 84%

    21 December, Friday

    Time Temperature Precipitation Wind Pressure Humidity
    00:00 +18°C° 0 mm 2 mps 673 mmHg 86%
    01:00 +18°C° 0 mm 3 mps 672 mmHg 86%
    02:00 +18°C° 0 mm 3 mps 672 mmHg 86%
    03:00 +17°C° 0 mm 3 mps 672 mmHg 86%
    04:00 +17°C° 0 mm 3 mps 672 mmHg 84%
    05:00 +17°C° 0 mm 4 mps 673 mmHg 81%
    06:00 +17°C° 0 mm 4 mps 673 mmHg 78%
    07:00 +18°C° 0 mm 4 mps 674 mmHg 72%
    08:00 +19°C° 0 mm 5 mps 675 mmHg 65%
    09:00 +20°C° 0 mm 5 mps 675 mmHg 58%
    10:00 +21°C° 0 mm 5 mps 675 mmHg 54%
    11:00 +23°C° 0 mm 5 mps 675 mmHg 50%
    12:00 +25°C° 0 mm 5 mps 675 mmHg 46%
    13:00 +25°C° 0 mm 5 mps 674 mmHg 47%
    14:00 +23°C° 0 mm 5 mps 674 mmHg 48%
    15:00 +23°C° 0 mm 5 mps 673 mmHg 49%
    16:00 +21°C° 0 mm 4 mps 673 mmHg 53%
    17:00 +20°C° 0 mm 4 mps 673 mmHg 56%
    18:00 +18°C° 0 mm 3 mps 673 mmHg 60%
    19:00 +18°C° 0 mm 3 mps 674 mmHg 62%
    20:00 +17°C° 0 mm 4 mps 674 mmHg 63%
    21:00 +15°C° 0 mm 4 mps 674 mmHg 64%
    22:00 +15°C° 0 mm 4 mps 674 mmHg 66%
    23:00 +14°C° 0 mm 4 mps 674 mmHg 68%

    22 December, Saturday

    Time Temperature Precipitation Wind Pressure Humidity
    00:00 +14°C° 0 mm 4 mps 673 mmHg 70%
    01:00 +14°C° 0 mm 4 mps 673 mmHg 71%
    02:00 +13°C° 0 mm 4 mps 672 mmHg 72%
    03:00 +13°C° 0 mm 4 mps 672 mmHg 72%
    04:00 +13°C° 0 mm 4 mps 672 mmHg 73%
    05:00 +13°C° 0 mm 3 mps 673 mmHg 74%
    06:00 +13°C° 0 mm 3 mps 673 mmHg 75%
    07:00 +14°C° 0 mm 4 mps 674 mmHg 68%
    08:00 +17°C° 0 mm 4 mps 674 mmHg 62%
    09:00 +19°C° 0 mm 4 mps 675 mmHg 56%
    10:00 +21°C° 0 mm 4 mps 675 mmHg 51%
    11:00 +24°C° 0 mm 3 mps 675 mmHg 45%
    12:00 +26°C° 0 mm 3 mps 675 mmHg 39%
    13:00 +26°C° 0 mm 3 mps 674 mmHg 40%
    14:00 +26°C° 0 mm 3 mps 674 mmHg 40%
    15:00 +26°C° 0 mm 3 mps 673 mmHg 40%
    16:00 +24°C° 0 mm 3 mps 673 mmHg 48%
    17:00 +21°C° 0 mm 3 mps 673 mmHg 56%
    18:00 +18°C° 0 mm 3 mps 673 mmHg 64%
    19:00 +18°C° 0 mm 3 mps 673 mmHg 68%
    20:00 +17°C° 0 mm 3 mps 673 mmHg 72%
    21:00 +16°C° 0 mm 3 mps 674 mmHg 76%
    22:00 +16°C° 0 mm 3 mps 674 mmHg 77%
    23:00 +14°C° 0 mm 3 mps 673 mmHg 79%
    Show more